Ostrava, Czech Republic

6:00 PM CEST on April 24, 2017 (GMT +0200)
Mosnov

Weather History for LKMT - September, 2012

Change the Weather History Date:

Thursday, September 6, 2012

  Actual Average Record
Temperature  
Mean Temperature 57 °F -  
Max Temperature 66 °F 65 °F - ()
Min Temperature 48 °F 46 °F - ()
Degree Days  
Heating Degree Days 8    
Growing Degree Days 7 (Base 50)    
Moisture  
Dew Point 49 °F    
Average Humidity 71    
Maximum Humidity 94    
Minimum Humidity 43    
Precipitation  
Precipitation 0.02 in 0.07 in - ()
Sea Level Pressure  
Sea Level Pressure 30.17 in    
Wind  
Wind Speed 6 mph ()    
Max Wind Speed 16 mph    
Max Gust Speed -    
Visibility 6.8 miles    
Events Rain    
T = Trace of Precipitation, MM = Missing Value Source: Averaged Metar Reports

Daily Weather History Graph

Daily Weather History Graph

Search for Another Location

Airport or City:

Trip Planner

Search our weather history database for the weather conditions in past years. The results will help you decide how hot, cold, wet, or windy it might be!

Date:

Astronomy

Sep. 06, 2012 Rise Set
Actual Time 6:10 AM CEST 7:19 PM CEST
Civil Twilight 5:37 AM CEST 7:52 PM CEST
Nautical Twilight 4:57 AM CEST 8:32 PM CEST
Astronomical Twilight 4:15 AM CEST 9:14 PM CEST
Moon 9:38 PM CEST (9/6) 12:31 PM CEST (9/6)
Length of Visible Light 14h 14m
Length of Day
13h 09m
Waning Gibbous, 70% of the Moon is Illuminated
Sep 6
Waning Gibbous
Sep 8
Last Quarter
Sep 16
New
Sep 22
First Quarter
Sep 30
Full

Hourly Weather History & Observations

Time (CEST) Temp. Dew Point Humidity Pressure Visibility Wind Dir Wind Speed Gust Speed Precip Events Conditions
12:00 AM 60.8 °F 55.4 °F 82% 30.09 in - NE 3.5 mph - N/A   Clear
12:30 AM 59.0 °F 55.4 °F 88% 30.09 in - ENE 3.5 mph - N/A   Clear
1:00 AM 60.8 °F 55.4 °F 82% 30.09 in 6.2 mi ENE 4.6 mph - N/A   Scattered Clouds
1:30 AM 60.8 °F 57.2 °F 88% 30.09 in 6.2 mi ENE 3.5 mph - N/A   Mostly Cloudy
2:00 AM 61 °F 56 °F 80% 30.09 in 7 mi NNE 2.2 mph - -   Mostly Cloudy
2:00 AM 60.8 °F 57.2 °F 88% 30.09 in 6.2 mi Variable 2.3 mph - N/A   Mostly Cloudy
2:30 AM 60.8 °F 57.2 °F 88% 30.09 in 6.2 mi NE 3.5 mph - N/A   Mostly Cloudy
3:00 AM 60.8 °F 57.2 °F 88% 30.09 in 6.2 mi NNE 6.9 mph - N/A   Overcast
3:30 AM 60.8 °F 57.2 °F 88% 30.09 in 6.2 mi NNE 6.9 mph - N/A   Overcast
4:00 AM 60.8 °F 57.2 °F 88% 30.09 in 6.2 mi NNE 9.2 mph - N/A   Mostly Cloudy
4:30 AM 60.8 °F 57.2 °F 88% 30.09 in 5.6 mi NNE 8.1 mph - N/A   Overcast
5:00 AM 60.8 °F 57.2 °F 88% 30.09 in 6.2 mi NNE 6.9 mph - N/A   Overcast
5:30 AM 60.8 °F 53.6 °F 77% 30.09 in 6.2 mi North 10.4 mph - N/A   Overcast
6:00 AM 59.0 °F 51.8 °F 77% 30.09 in 6.2 mi NNE 13.8 mph - N/A   Overcast
6:30 AM 59.0 °F 51.8 °F 77% 30.12 in 6.2 mi NNE 9.2 mph - N/A   Overcast
7:00 AM 57.2 °F 50.0 °F 77% 30.12 in 6.2 mi North 11.5 mph - N/A Rain Light Rain
7:30 AM 57.2 °F 51.8 °F 82% 30.15 in 6.2 mi North 4.6 mph - N/A Rain Light Rain
8:00 AM 56 °F 52 °F 82% 30.16 in 8 mi North 4.5 mph - - Rain Light Rain
8:00 AM 55.4 °F 51.8 °F 88% 30.15 in 6.2 mi North 5.8 mph - N/A Rain Light Rain
8:30 AM 55.4 °F 53.6 °F 94% 30.15 in 6.2 mi NNE 3.5 mph - N/A Rain Light Rain
9:00 AM 57.2 °F 51.8 °F 82% 30.15 in 6.2 mi NNE 3.5 mph - N/A   Mostly Cloudy
9:30 AM 57.2 °F 51.8 °F 82% 30.15 in 6.2 mi NNE 3.5 mph - N/A   Mostly Cloudy
10:00 AM 57.2 °F 51.8 °F 82% 30.15 in 6.2 mi NNE 5.8 mph - N/A   Mostly Cloudy
10:30 AM 57.2 °F 51.8 °F 82% 30.18 in 6.2 mi NNW 4.6 mph - N/A   Mostly Cloudy
11:00 AM 59.0 °F 51.8 °F 77% 30.18 in 6.2 mi NW 3.5 mph - N/A   Mostly Cloudy
11:30 AM 60.8 °F 53.6 °F 77% 30.18 in 6.2 mi North 3.5 mph - N/A   Mostly Cloudy
12:00 PM 60.8 °F 51.8 °F 72% 30.18 in 6.2 mi Variable 2.3 mph - N/A   Mostly Cloudy
12:30 PM 60.8 °F 53.6 °F 77% 30.18 in 6.2 mi NNE 3.5 mph - N/A   Mostly Cloudy
1:00 PM 62.6 °F 51.8 °F 68% 30.18 in 6.2 mi Variable 3.5 mph - N/A   Scattered Clouds
1:30 PM 64.4 °F 50.0 °F 59% 30.18 in 6.2 mi NNW 9.2 mph - N/A   Partly Cloudy
2:00 PM 64 °F 47 °F 43% 30.19 in 16 mi NNW 13.4 mph - -   Partly Cloudy
2:00 PM 64.4 °F 48.2 °F 56% 30.18 in 6.2 mi NNW 12.7 mph - N/A   Partly Cloudy
2:30 PM 64.4 °F 46.4 °F 52% 30.18 in 6.2 mi North 16.1 mph - N/A   Partly Cloudy
3:00 PM 66.2 °F 46.4 °F 49% 30.18 in 6.2 mi NNW 13.8 mph - N/A   Partly Cloudy
3:30 PM 66.2 °F 44.6 °F 46% 30.18 in 6.2 mi North 12.7 mph - N/A   Partly Cloudy
4:00 PM 62.6 °F 42.8 °F 48% 30.18 in 6.2 mi NNW 13.8 mph - N/A   Partly Cloudy
4:30 PM 64.4 °F 42.8 °F 45% 30.18 in 6.2 mi North 13.8 mph - N/A   Partly Cloudy
5:00 PM 62.6 °F 42.8 °F 48% 30.21 in 6.2 mi North 13.8 mph - N/A   Partly Cloudy
5:30 PM 62.6 °F 42.8 °F 48% 30.21 in - North 11.5 mph - N/A   Clear
6:00 PM 60.8 °F 41.0 °F 48% 30.21 in - North 12.7 mph - N/A   Clear
6:30 PM 60.8 °F 42.8 °F 52% 30.21 in - North 13.8 mph - N/A   Clear
7:00 PM 59.0 °F 42.8 °F 55% 30.21 in - North 10.4 mph - N/A   Clear
7:30 PM 57.2 °F 41.0 °F 55% 30.21 in - North 8.1 mph - N/A   Clear
8:00 PM 53.6 °F 41.0 °F 62% 30.24 in - North 5.8 mph - N/A   Clear
8:11 PM 53 °F 40 °F 52% 30.26 in 16 mi North 6.7 mph - -   Partly Cloudy
8:30 PM 53.6 °F 41.0 °F 62% 30.24 in - North 4.6 mph - N/A   Clear
9:00 PM 51.8 °F 41.0 °F 67% 30.24 in - North 4.6 mph - N/A   Clear
9:30 PM 53.6 °F 41.0 °F 62% 30.24 in - Variable 2.3 mph - N/A   Clear
10:00 PM 50.0 °F 41.0 °F 71% 30.24 in - Variable 1.2 mph - N/A   Clear
10:30 PM 48.2 °F 41.0 °F 76% 30.27 in - Variable 2.3 mph - N/A   Clear
11:00 PM 50.0 °F 42.8 °F 76% 30.27 in - SW 3.5 mph - N/A   Clear
11:30 PM 48.2 °F 42.8 °F 82% 30.27 in - South 3.5 mph - N/A   Clear